Overview Statistics Trail Chart Weather Telemetry Raw packets
 

This is the latest recevied weather packets stored in our database for station/object W0CHP-13. If no packets are shown the sender has not sent any weather packets the latest 10 day(s).

<< 19 20 21 22 23 24 25 >>
Time Temp. Humidity Pressure Rain* Wind** Luminosity Snow
1788400516 26.11° C 78% 1010.3 hPa 0 mm - 0 W/m² -
1788399918 26.67° C 78% 1010.3 hPa 0 mm - 0 W/m² -
1788399317 26.67° C 78% 1010 hPa 0 mm - 0 W/m² -
1788398718 26.67° C 77% 1009.9 hPa 0 mm - 0 W/m² -
1788398116 27.22° C 75% 1009.9 hPa 0 mm - 0 W/m² -
1788398059 27.22° C 75% 1009.9 hPa 0 mm - 0 W/m² -
1788397457 27.78° C 73% 1009.9 hPa 0 mm - 0 W/m² -
1788396916 27.78° C 70% 1009.6 hPa 0 mm - 0 W/m² -
1788396317 28.33° C 68% 1009.6 hPa 0 mm - 2 W/m² -
1788395716 28.89° C 67% 1009.9 hPa 0 mm - 5 W/m² -
1788395117 29.44° C 66% 1009.6 hPa 0 mm - 9 W/m² -
1788394817 29.44° C 64% 1009.9 hPa 0 mm - 12 W/m² -
1788394455 30° C 64% 1009.6 hPa 0 mm - 15 W/m² -
1788394341 30° C 64% 1009.6 hPa 0 mm - 16 W/m² -
1788393736 30° C 61% 1009.6 hPa 0 mm - 21 W/m² -
1788393438 30.56° C 61% 1009.9 hPa 0 mm - 23 W/m² -
1788392916 30.56° C 58% 1009.6 hPa 0 mm - 27 W/m² -
1788392297 31.11° C 55% 1009.6 hPa 0 mm - 37 W/m² -
1788391715 31.67° C 54% 1009.5 hPa 0 mm - 65 W/m² -
1788391097 32.22° C 53% 1009.6 hPa 0 mm - 83 W/m² -
1788390495 32.22° C 54% 1009.2 hPa 0 mm - 109 W/m² -
1788389898 32.22° C 52% 1009.6 hPa 0 mm - 136 W/m² -
1788389295 32.78° C 53% 1009.6 hPa 0 mm - 163 W/m² -
1788388698 32.78° C 53% 1009.6 hPa 0 mm - 194 W/m² -
1788388096 32.78° C 53% 1009.6 hPa 0 mm - 225 W/m² -

* Rain latest 24 hours (hover to see other rain measurements)
** Current wind speed in m/s (hover to see current wind gust speed)